Hlavní strana
METAR-TAF:

METAR-TAF

Letiště :

Hamilton, Ohio, Spojené státy americké

zeměpisná šířka: 39-21-41N, zeměpisná délka: 084-31-15W, výška: 193 m

Aktuální stav počasí

Zpráva byla vytvořena před 29 minutami, v 10:53 UTC
Bezvětří
Teplota -4°C
Vlhkost vzduchu 86%
Tlak 1026 hPa
Viditelnost: 16.1 km
Jasno

METAR: KHAO 251053Z AUTO 00000KT 10SM CLR M04/M06 A3029 RMK AO2 SLP263 I1000 T10441056

Čas: 06:22 (11:22 UTC)


TAF: chybějící

Stav a předpovědi počasí z více než 4 000 letišť (zprávy METAR a TAF).

Červené a žluté tečky na mapě představují dostupné meteorologické stanice.

Když kurzor umístíte na tečku, zobrazí se název stanice.

Pak kliknutím zobrazíte stav a předpověď počasí.

Chcete-li změnit mapu, kliknutím na zelené tlačítko se znaménkem +mapu přiblížíte, kliknutím na zelené tlačítko se znaménkem – mapu oddálíte a kliknutím na zelené šipky přejdete na sousední mapy.


METAR-TAF: